Погода в Джигинке

Россия / Краснодарский край     45°07′51″N   37°20′07″E
темп.,
°C
ветер,
м/с
пор.,
м/с
влажн.,
%
обл.,
%
осадки,
мм/ч
давл.,
гПа
погр.,
м
17 мая, вт
вт1700:00+15ююз4778100 0.0 1018149
03:00+15ююз357691 0.0 1017131
06:00+14ююз468272 0.1 1016166
09:00+18з455897 0.1 1016574
12:00+20зсз574943 0.0 10161530
15:00+17зсз466243 0.1 1016499
18:00+16юз61068100 0.2 1016378
21:00+16ююз6107194 0.5 1016398
18 мая, ср
ср1800:00+15ююз6117896 0.1 1014314
03:00+16ююз71273100 0.1 1012494
06:00+16ююз71170100 0.0 1011619
09:00+16ююз71073100 0.0 1011967
12:00+18ююз81163100 0.1 10091122
15:00+14юз6990100 2.3 1009634
18:00+14зсз5886100 3.2 1009635
21:00+12ссз81083100 3.3 1013770
19 мая, чт
чт1900:00+11сз71076100 0.0 1015476
03:00+10з4782100 0.2 1016198
06:00+11зсз6978100 0.6 1017424
09:00+14сз78626 1.0 10191264
12:00+15сз885912 0.6 10201371
15:00+15ссз7965100 1.4 10221302
18:00+15сз68635 0.0 1023890
21:00+12з47765 0.1 1024186
20 мая, пт
пт2000:00+12сз33706 0.1 102582
03:00+11з23786 0.2 102560
06:00+12зюз347381 0.0 102583
09:00+18зсз56535 0.1 10261282
12:00+19зсз674927 0.1 10261790
15:00+19з464919 0.1 10251505
18:00+18юз6757100 0.0 1025530
21:00+15юз61066100 0.0 1025342
21 мая, сб
сб2100:00+15юз7116699 0.0 1023385
03:00+14юз711705 0.0 1022354
06:00+14юз7107290 0.0 1022434
09:00+17юз810610 0.0 1021814
12:00+18ююз910605 0.0 1019842
15:00+17юз910625 0.0 1018754
18:00+16ююз91169100 0.0 1016615
21:00+14юз8117644 0.0 1016424